Weather History for Goshen, IN

Change the Weather History Date:

Monday, April 28, 2014

  Actual Average Record
Temperature  
Mean Temperature 50 °F -  
Max Temperature 54 °F 65 °F 79 °F (1951)
Min Temperature 46 °F 41 °F 27 °F (1950)
Degree Days  
Heating Degree Days 16    
Moisture  
Dew Point 41 °F    
Average Humidity 73    
Maximum Humidity 90    
Minimum Humidity 52    
Precipitation  
Precipitation 0.07 in - - ()
Sea Level Pressure  
Sea Level Pressure 29.76 in    
Wind  
Wind Speed 20 mph (East)    
Max Wind Speed 25 mph    
Max Gust Speed 33 mph    
Visibility 9 miles    
Events Rain    
Averages and records for this station are not official NWS values.
T = Trace of Precipitation, MM = Missing Value Source: NWS Daily Summary

Daily Weather History Graph

Daily Weather History Graph

Search for Another Location

Airport:

Trip Planner

Search our weather history database for the weather conditions in past years. The results will help you decide how hot, cold, wet, or windy it might be!

Date:

Astronomy

Apr. 28, 2014 Rise Set
Actual Time 6:44 AM EDT 8:37 PM EDT
Civil Twilight 6:14 AM EDT 9:07 PM EDT
Nautical Twilight 5:37 AM EDT 9:44 PM EDT
Astronomical Twilight 4:58 AM EDT 10:23 PM EDT
Moon 6:22 AM EDT (4/28) 8:14 PM EDT (4/28)
Length of Visible Light 14h 53m
Length of Day
13h 53m
Waning Crescent, 0% of the Moon is Illuminated
Apr 28
Waning Crescent
Apr 29
New
May 6
First Quarter
May 14
Full
May 21
Last Quarter

Hourly Weather History & Observations

Time (EDT) Temp. Dew Point Humidity Pressure Visibility Wind Dir Wind Speed Gust Speed Precip Events Conditions
1:53 AM 48.9 °F 33.1 °F 54% 29.96 in 10.0 mi East 19.6 mph 26.5 mph N/A   Overcast
2:53 AM 48.9 °F 32.0 °F 52% 29.94 in 10.0 mi East 21.9 mph - N/A   Overcast
4:53 AM 48.0 °F 33.1 °F 56% 29.84 in 10.0 mi East 21.9 mph 28.8 mph N/A   Mostly Cloudy
6:53 AM 50.0 °F 35.1 °F 57% 29.83 in 10.0 mi East 15.0 mph - N/A   Overcast
7:53 AM 50.0 °F 35.1 °F 57% 29.82 in 10.0 mi East 17.3 mph 26.5 mph 0.00 in   Overcast
8:53 AM 48.0 °F 39.0 °F 71% 29.82 in 10.0 mi East 13.8 mph - 0.00 in Rain Light Rain
10:53 AM 46.9 °F 41.0 °F 80% 29.80 in 5.0 mi East 19.6 mph 29.9 mph 0.06 in Rain Light Rain
11:53 AM 48.9 °F 42.1 °F 77% 29.75 in 10.0 mi East 24.2 mph 29.9 mph 0.01 in   Overcast
12:53 PM 51.1 °F 43.0 °F 74% 29.75 in 10.0 mi East 24.2 mph 31.1 mph N/A   Overcast
1:53 PM 51.1 °F 43.0 °F 74% 29.76 in 10.0 mi East 21.9 mph 31.1 mph N/A   Overcast
2:19 PM 51.1 °F 43.0 °F 74% 29.75 in 10.0 mi ESE 21.9 mph 31.1 mph N/A   Overcast
2:53 PM 53.1 °F 44.1 °F 71% 29.75 in 10.0 mi East 24.2 mph 31.1 mph N/A   Overcast
3:53 PM 52.0 °F 44.1 °F 74% 29.78 in 10.0 mi ESE 19.6 mph 26.5 mph N/A   Overcast
4:37 PM 51.1 °F 44.1 °F 77% 29.74 in 10.0 mi East 23.0 mph 32.2 mph N/A   Overcast
5:53 PM 51.1 °F 44.1 °F 77% 29.70 in 10.0 mi East 25.3 mph 33.4 mph N/A   Overcast
6:37 PM 51.1 °F 44.1 °F 77% 29.69 in 10.0 mi East 21.9 mph 29.9 mph N/A   Overcast
6:53 PM 51.1 °F 44.1 °F 77% 29.69 in 10.0 mi East 24.2 mph 31.1 mph N/A   Overcast
7:53 PM 50.0 °F 44.1 °F 80% 29.71 in 10.0 mi East 18.4 mph 28.8 mph N/A   Overcast
8:23 PM 50.0 °F 43.0 °F 77% 29.69 in 10.0 mi East 21.9 mph 29.9 mph N/A   Overcast
8:53 PM 50.0 °F 43.0 °F 77% 29.69 in 10.0 mi East 19.6 mph 25.3 mph N/A   Overcast
9:53 PM 48.9 °F 43.0 °F 80% 29.68 in 10.0 mi East 20.7 mph 28.8 mph N/A   Overcast
10:53 PM 48.9 °F 45.0 °F 86% 29.68 in 7.0 mi East 23.0 mph 29.9 mph N/A   Overcast
11:00 PM 48.9 °F 45.0 °F 86% 29.67 in 7.0 mi East 21.9 mph 28.8 mph N/A   Overcast
11:53 PM 48.9 °F 46.0 °F 90% 29.66 in 5.0 mi East 16.1 mph - N/A   Overcast